User: anonymous
Location: Columbia
(38.9520°N, 92.3340°W)
Time: 11:23:14
(UTC-05:00)
Language:

Iridium 15 - Orbit

View from above orbital plane
View from above orbital plane
View from above satellite
View from above satellite

Ground track
Ground track

The orbit data is extracted from the following two-line orbital elements,

1 24869U 97034A   14266.00449718  .00000116  00000-0  34508-4 0   830
2 24869 086.3928 079.0667 0002065 107.6670 004.3730 14.34213331900845
Epoch (UTC): 23 September 2014 00:06:28
Eccentricity: 0.0002065
inclination: 86.3928°
perigee height: 776 km
apogee height: 779 km
right ascension of ascending node: 79.0667°
argument of perigee: 107.6670°
revolutions per day: 14.34213331
mean anomaly at epoch: 4.3730°
orbit number at epoch: 90084

The dashed part of the orbit path shows where the satellite is in the earth's shadow,  

DLR